Rbgn^[z[y[W
メイン
   新天体発見情報
     Comet C/2023 F2 (SOHO)
投稿するにはまず登録を

スレッド表示 | 新しいものから 前のトピック | 次のトピック | 下へ
投稿者 スレッド
佐藤裕久
投稿日時: 2023-5-23 11:55
モデレータ
登録日: 2005-6-12
居住地: 日本
投稿: 2697
オンライン
Comet C/2023 F2 (SOHO)

K. Battams (海軍研究所)の通報によると、Hanjie Tan (中国)は、3月21日UT、SOHO C3コロナグラフ
のwebpage画像から、かなり明るい(最大時V光度約5.5等)Meyer群の太陽を掠める彗星を見つけた。
Battamsによって、C2とC3コロナグラフの軽減位置測定が行われ、B. Grayによって報告された。
Battamsは、彗星が恒星状に見え、コマや尾がないことを記している。

発見位置は次のとおり、

     2023 UT             R.A. (2000) Decl.        Mag.
     Mar. 21.00517    0 05 00.1    + 1 28 53       5
          21.59683   23 51 52.4    + 1 39 55       7

MPCの(修正)放物線軌道要素次のとおり、

Orbital elements:
    C/2023 F2 (SOHO)                                                            
Epoch 2023 Feb. 25.0 TT = JDT 2460000.5                                         
T 2023 Mar. 21.16775 TT                                 Spoto                   
q   0.0342200            (2000.0)            P               Q                  
z  -1.0563688      Peri.   58.03583     -0.06672024     -0.43313643             
 +/-0.0017988      Node    70.60110     +0.21490403     -0.88595741             
e   1.0           Incl.   72.35554     +0.97435346     +0.16574771             
From 82 observations 2023 Mar. 21-21, mean residual 0".2. 

(MPEC 2023-K46、CBET 5261、MPC Database object_id=CF2023+F2)

スレッド表示 | 新しいものから 前のトピック | 次のトピック | トップ

投稿するにはまず登録を
 
© 1999 Tsutomu Seki.